Location: Bühlhof
(48.7849°N, 8.6361°E)
Time: 01:02:03
(UTC+00:00)

USA 59 Rocket - Pass Details

Date: 19 January 2026
Orbit: 369 x 1671 km, 63.3° (Epoch: 18 February)

Event Time Altitude Azimuth Distance (km) Brightness Sun altitude
Rises 18:13:32 0° 313° (NW) 2,387 3.7 -21.1°
Reaches altitude 10° 18:15:26 10° 307° (NW) 1,609 2.8 -21.4°
Maximum altitude 18:18:48 47° 232° (SW) 721 0.7 -22.0°
Enters shadow 18:22:21 15° 162° (SSE) 1,754 2.2 -22.5°
